Location: Laverne
(36.7100°N, 99.8930°W)
Time: 03:29:38
(UTC-05:00)

Daily predictions for brighter satellites

Satellite Brightness Start Highest point End
(mag) Time Altitude Azimuth Time Altitude Azimuth Time Altitude Azimuth
SL-16 R/B 4.3 00:39:10 22° NNW 00:39:10 22° NNW 00:41:55 10° N
ATLAS 3B R/B 3.8 02:41:57 43° N 02:41:57 43° N 02:47:04 10° NNE
SL-16 R/B 4.0 03:14:39 26° N 03:14:39 26° N 03:17:10 10° NNE
Cosmos 2333 Rocket 4.5 03:15:47 17° NNW 03:15:47 17° NNW 03:17:44 10° N
Cosmos 2237 Rocket 4.4 03:19:42 17° NNW 03:19:42 17° NNW 03:21:40 10° N
Resurs 1-4 Rocket 4.2 03:20:46 10° NE 03:23:37 19° ENE 03:23:37 19° ENE
USA 238 DEB 4.4 03:32:15 46° NNW 03:32:15 46° NNW 03:37:46 10° NNE
USA 238 4.4 03:32:21 47° NNW 03:32:21 47° NNW 03:37:53 10° NNE
USA 234 3.8 03:27:37 10° NE 03:32:36 52° ENE 03:32:36 52° ENE
BREEZE-M DEB (TANK) 4.2 03:43:46 67° NW 03:43:46 67° NW 03:48:24 10° NE
CZ-4C R/B 3.5 03:46:31 33° N 03:46:31 33° N 03:50:17 10° NNE
NOSS 3-2 (A) 4.0 03:48:27 57° NNE 03:48:27 57° NNE 03:53:34 10° NNE
ATLAS 5 CENTAUR R/B 4.0 03:51:30 20° E 03:51:30 20° E 03:54:05 10° ENE
NOSS 3-2 (C) 3.6 04:04:09 68° NNE 04:04:09 68° NNE 04:09:52 10° NNE
CENTAUR R/B 4.0 04:05:35 23° SE 04:06:46 24° ESE 04:11:47 10° ENE
SL-16 R/B 2.9 04:05:49 53° ESE 04:06:50 60° ENE 04:12:54 10° N
Meteor 2-3 Rocket 4.1 04:05:17 10° N 04:11:01 62° E 04:11:03 62° E
ATLAS CENTAUR R/B 3.5 04:18:07 10° NNW 04:20:01 22° N 04:20:01 22° N
Cosmos 1943 3.2 04:25:33 74° N 04:25:33 74° N 04:30:42 10° NNE
CZ-2D R/B 2.2 04:21:54 10° NNE 04:26:44 73° NE 04:26:44 73° NE
Cosmos 839 Rocket 4.3 04:19:49 10° NNW 04:27:53 81° ENE 04:34:24 10° SSE
Cosmos 494 Rocket 4.2 04:30:01 67° N 04:30:01 67° N 04:34:35 10° NNE
Cosmos 1386 Rocket 4.4 04:25:13 10° N 04:31:14 72° WNW 04:31:14 72° WNW
Cosmos 1709 Rocket 4.1 04:28:52 10° N 04:35:14 73° E 04:37:52 37° SSE
Cosmos 2369 Rocket 2.2 04:33:16 10° NNW 04:38:54 80° ENE 04:41:03 39° SSE
Cosmos 1455 3.4 04:40:22 42° NE 04:40:22 42° NE 04:43:15 10° NNE
Cosmos 1302 Rocket 4.4 04:38:04 10° N 04:43:16 60° ENE 04:48:24 10° SSE
IRS-1D 3.9 04:39:51 10° N 04:44:24 53° NW 04:44:24 53° NW
Cosmos 389 Rocket 4.2 04:45:45 29° E 04:45:45 29° E 04:48:36 10° NNE
Cosmos 1733 Rocket 3.6 04:48:19 10° N 04:52:38 58° E 04:53:57 40° SE
ARIANE 5 R/B 3.2 04:51:37 10° N 04:56:01 39° WNW 04:56:01 39° WNW
Cosmos 1331 Rocket 4.4 04:53:46 10° NNW 04:57:49 46° WNW 04:57:49 46° WNW
Cosmos 1184 Rocket 3.7 04:59:34 10° N 05:02:55 50° E 05:02:58 49° E
Resurs 1-4 Rocket 2.5 04:59:38 10° N 05:04:36 43° WNW 05:04:42 43° WNW
Cosmos 1943 Rocket 2.9 04:59:56 10° NNW 05:05:30 55° ENE 05:11:00 10° SE
SeaSat 1 2.5 05:04:50 10° SSE 05:09:44 76° ENE 05:14:40 10° NNW
Cosmos 2263 4.1 05:04:55 10° NNW 05:10:43 78° WSW 05:16:29 10° SSE
USA 234 4.2 05:10:58 10° NNE 05:16:48 36° NNW 05:19:56 23° WNW
Okean O Rocket 1.5 05:13:40 10° NNE 05:18:09 88° W 05:19:41 41° SSW
Cosmos 1408 4.2 05:15:06 10° N 05:18:35 36° E 05:22:04 10° SSE
Cosmos 1825 3.6 05:16:27 10° N 05:20:01 39° E 05:23:34 10° SSE
Cosmos 1908 Rocket 4.4 05:16:08 10° N 05:20:25 50° E 05:24:38 10° SSE
ADEOS II 3.8 05:16:10 10° NE 05:20:47 30° E 05:25:22 10° SSE
Okean-O 4.4 05:17:31 10° NE 05:21:24 29° E 05:25:16 10° SSE
Cosmos 1862 4.3 05:18:20 10° N 05:22:11 47° E 05:26:01 10° SSE
Thor Agena Rocket 4.3 05:19:31 10° SSE 05:24:29 54° ENE 05:29:33 10° N
Cosmos 2315 Rocket 4.5 05:24:16 34° WSW 05:25:55 40° WNW 05:31:47 10° N
UNKNOWN OBJECT B 4.2 05:24:58 10° NNW 05:27:12 23° NW 05:27:12 23° NW
CZ-2D R/B 4.1 05:24:45 10° N 05:28:50 39° WNW 05:29:17 38° W
CZ-4B R/B 2.6 05:27:26 10° NNE 05:31:06 87° ESE 05:32:44 32° S
Cosmos 1869 3.7 05:31:14 40° W 05:31:20 40° W 05:35:06 10° N
Sich 1 Rocket 3.5 05:29:00 10° N 05:33:25 88° WSW 05:37:49 10° S
ATLAS 5 CENTAUR R/B 2.5 05:33:05 31° W 05:34:34 39° NW 05:39:25 10° NNE
SL-27 R/B 2.4 05:34:00 47° SW 05:34:53 70° WNW 05:38:32 10° NNE
Cosmos 1933 3.3 05:32:40 25° S 05:34:59 88° W 05:39:07 10° N
Cosmos 1703 Rocket 3.8 05:31:31 13° S 05:35:29 70° E 05:39:58 10° NNE
USA 32 4.3 05:30:23 10° S 05:35:35 71° E 05:40:48 10° N
CZ-3 R/B 4.2 04:47:16 10° W 05:35:52 52° SW 05:46:37 10° SE
IRS-1C Rocket 4.2 05:34:08 10° N 05:39:16 55° WNW 05:42:15 24° SW
SL-08 ROCKET BODY 4.4 05:33:43 10° N 05:39:46 88° W 05:45:53 10° S
CZ-2C R/B 3.8 05:42:26 10° S 05:46:46 51° W 05:51:05 10° NNW
SL-16 R/B 3.8 05:50:55 18° W 05:50:55 18° W 05:54:57 10° NW
Aureole 3 Rocket 4.1 05:46:39 10° S 05:54:25 88° W 05:59:54 10° N
Atlas Centaur 2 3.5 05:52:50 14° SSW 05:55:37 23° SSE 05:59:53 10° ESE
CENTAUR R/B 2.8 05:52:48 21° WSW 05:56:49 52° NW 06:03:28 10° NNE
ADEOS Rocket 3.7 05:49:26 10° NNE 05:57:14 83° ESE 06:04:57 10° SSW
PSLV R/B 3.5 05:56:11 10° N 06:00:35 86° WNW 06:04:58 10° SSW
MOZ.5/SAFIR/RUBIN 5/SL-8 4.5 05:59:46 10° SSW 06:03:51 31° W 06:07:58 10° NW
COSMOS 2406 3.5 06:01:21 15° SW 06:06:02 53° WNW 06:11:41 10° NNE
CZ-2D R/B 4.0 06:04:44 10° NW 06:06:30 12° WNW 06:08:03 10° WNW
PSLV R/B 4.3 06:08:14 10° WNW 06:11:30 42° N 06:14:44 10° E
Okean 2 Rocket 3.1 06:08:02 10° N 06:12:33 86° W 06:17:04 10° S
Nadezhda 1 Rocket 4.3 06:10:10 10° SSW 06:16:09 48° W 06:22:15 10° N
Okean 1-7 3.1 06:13:45 10° SSW 06:17:58 59° W 06:22:15 10° N
Meteor PRIRODA 3.7 06:17:59 10° N 06:21:44 67° WNW 06:25:28 10° SSW
Cosmos 2369 Rocket 3.9 06:20:30 10° W 06:22:07 11° W 06:22:32 11° WSW
Cosmos 407 Rocket 3.5 06:18:29 10° SSW 06:23:39 73° WNW 06:28:56 10° NNE
CZ-4B R/B 4.1 06:19:20 10° N 06:23:48 28° WNW 06:28:13 10° SW
Cosmos 2181 Rocket 4.2 06:18:39 10° S 06:25:06 86° E 06:31:33 10° N
AVUM R/B 3.2 06:31:35 10° SSW 06:34:42 65° WNW 06:38:00 10° NNE
CZ-4B R/B 4.1 06:31:09 10° N 06:35:41 83° WNW 06:40:06 10° SSW
Cosmos 1782 Rocket 4.2 06:33:31 10° NNW 06:37:25 33° W 06:41:18 10° SSW
Cosmos 2082 Rocket 4.0 06:37:17 10° SSE 06:42:25 35° ESE 06:47:34 10° NE
